Regional Weather Roundup
Issued by NWS Grand Forks, ND

Home | Current Version | Previous Version | Graphics & Text | Print | Product List | Glossary On
Versions: 1 2 3 4 5 6 7 8 9 10 11 12 13 14 15 16 17 18 19 20 21 22 23 24 25 26 27 28 29 30 31 32 33 34 35 36 37 38 39 40 41 42 43 44 45 46 47 48 49 50
000
ASUS43 KFGF 300431
RWRFGF
PRAIRIE TO PINES  WEATHER ROUNDUP
NATIONAL WEATHER SERVICE EASTERN NORTH DAKOTA/GRAND FORKS ND
1100 PM CDT MON SEP 29 2014

 **SATELLITE DATA USED TO AUGMENT SKY COVER AT AUTOMATED STATIONS**
 *****  WEATHER ACROSS EASTERN NORTH DAKOTA  *****

CITY           SKY/WX    TMP DP  RH WIND       PRES   REMARKS
GRAND FORKS    CLEAR     49  45  86 E8        30.05F
GRAND FRKS AFB CLEAR     46  46  99 SE8       30.06F
GRAND FRKS NWS   N/A     46 N/A N/A E10         N/A
DEVILS LAKE    PTCLDY    46  41  81 E10       30.01F
FARGO          CLEAR     51  45  79 SE10      30.05F
WAHPETON ARPT  CLOUDY    46  43  87 SE8       30.06S
$$

 ***** WEATHER ACROSS CENTRAL AND WESTERN NORTH DAKOTA  *****

CITY           SKY/WX    TMP DP  RH WIND       PRES   REMARKS
BISMARCK       CLOUDY    55  48  77 E9        29.96F
MINOT          CLOUDY    52  46  80 E15G22    29.95F
JAMESTOWN      PTCLDY    49  46  90 E7        30.01F
MINOT AFB      CLOUDY    52  48  87 SE15G23   29.95S
GARRISON         N/A     53  48  83 SE17G24   29.95F
WILLISTON      CLOUDY    53  48  83 SE10      29.89F
DICKINSON      CLOUDY    51  49  92 E12       29.88S
HETTINGER      CLOUDY    52  50  93 E9        29.90F
$$

 *****  OTHER AIRPORT OBSERVATIONS IN OUR AREA  *****

CITY           SKY/WX    TMP DP  RH WIND       PRES   REMARKS
WALHALLA       CLOUDY    48  48 100 E6        30.07F
GRAFTON AIRPOR MOCLDY    45  45 100 E6        30.07S
VALLEY CITY AR MOCLDY    50  50 100 SE12      30.03S
CANDO          FAIR      46  45  93 E9        30.02F
CAVALIER APRT    N/A     45  45 100 E3        30.07F
GWINNER          N/A     52  48  87 E10       30.04S
SHEYENNE NWR     N/A     49  46  90 SE8       29.95S
ROLLA          CLOUDY    48  46  93 SE9       30.03F
 ***** THE ABOVE OBSERVATIONS ARE NON NWS ARE NOT QUALITY
       CONTROLLED AND MAY MIS-REPORT RAIN FOR SNOW...
$$

  *****  WEATHER ACROSS NORTHERN MINNESOTA  *****

CITY           SKY/WX    TMP DP  RH WIND       PRES   REMARKS
FLAG ISLAND    CLOUDY    46  45  93 SE10      30.12F
WARROAD        CLEAR     43  39  87 SE10      30.13F
ROSEAU         CLEAR     45  39  81 SE12      30.11F
HALLOCK        CLEAR     45  43  93 E6        30.07F
THF RVR FALLS  CLEAR     45  43  93 E6        30.09S
BAUDETTE       MOCLDY    43  40  89 SE8       30.15F
WASKISH        CLEAR     39  37  93 CALM      30.14F
CROOKSTON      CLEAR     48  45  87 SE7       30.08S
STEPHEN NDAWN    N/A     46  45  93 SE6         N/A
GREENBUSH NDAW   N/A     46  45  93 SE8         N/A
$$
  *****  WEATHER ACROSS CENTRAL AND WEST MINNESOTA  *****

CITY           SKY/WX    TMP DP  RH WIND       PRES   REMARKS
FOSSTON        CLEAR     43  39  87 SE7       30.09F
BEMIDJI        CLEAR     44  41  91 SE7       30.12S
PARK RAPIDS    PTCLDY    47  42  83 SE5       30.10F
ELBOW LAKE     FAIR      47  44  88 SE10G17   30.07R
WADENA         CLEAR     45  39  81 E9        30.10S
DETROIT LAKES  CLOUDY    48  43  81 SE12      30.09S
MOORHEAD       NOT AVBL
FERGUS FALLS   CLEAR     48  43  81 SE9       30.07S
MORRIS MN      CLEAR     48  45  87 E13       30.07S
STAPLES        CLEAR     43  39  87 E5        30.11F
$$
  *****  WEATHER ELSEWHERE ACROSS MINNESOTA  *****

CITY           SKY/WX    TMP DP  RH WIND       PRES   REMARKS
DULUTH         CLOUDY    44  39  82 E12       30.17F
INTRNTL FALLS  CLOUDY    43  39  86 SE7       30.17F
ELY            CLOUDY    43  37  81 E6        30.18F
CLOQUET        CLOUDY    43  39  87 E8G17     30.16F
WHEATON        CLEAR     45  43  93 E6        30.08S
BRAINERD       CLOUDY    43  41  93 VRB6      30.13F
HIBBING        CLOUDY    45  41  86 SE5       30.17F
ALEXANDRIA     CLOUDY    45  42  89 E13       30.10S
SAINT CLOUD    MOCLDY    45  40  82 E5        30.12S
MINNEAPOLIS    CLEAR     47  41  80 NE10      30.11S
$$

  *****  WEATHER ACROSS SOUTH DAKOTA  *****

CITY           SKY/WX    TMP DP  RH WIND       PRES   REMARKS
SIOUX FALLS    PTCLDY    56  51  84 E12       30.00R
BROOKINGS      NOT AVBL
WATERTOWN      PTCLDY    51  46  83 E8G22     30.02S
HURON          PTCLDY    57  50  77 E14       29.95R
SISSETON         N/A     51  47  86 SE9       30.03F
ABERDEEN       CLOUDY    54  50  86 E8        29.99S
MITCHELL       CLEAR     61  55  81 E13       29.95R
PIERRE         CLOUDY    63  56  78 E18       29.85F
MOBRIDGE       MOCLDY    55  50  83 E6        29.90F
RAPID CITY     HVY RAIN  53  52  96 NW5       29.85F FOG
$$

  *****  SOME WEATHER IN NEARBY STATES *****

CITY           SKY/WX    TMP DP  RH WIND       PRES   REMARKS
GLASGOW MT     PTCLDY    49  47  93 E15       29.76F
GREAT FALLS MT PTCLDY    54  45  71 SW12      29.68F
CHEYENNE WY    RAIN      44  41  89 N22G32    29.86F FOG
SCOTTSBLUFF NE HVY RAIN  53  53 100 W10       29.72F FOG
OMAHA NE       PTCLDY    68  57  68 E6        29.95R
DES MOINES IA  CLEAR     66  59  78 NE10      29.98S
DAVENPORT IA   NOT AVBL
CHICAGO IL     LGT RAIN  56  51  84 NE14G22   30.02S
EAU CLAIRE WI  MOCLDY    44  38  79 NE10G20   30.11S
LA CROSSE WI   CLEAR     52  46  80 NE6       30.08S
$$

  *****  SOME NATIONAL WEATHER *****

CITY           SKY/WX    TMP DP  RH WIND       PRES   REMARKS
LA GUARDIA NY  CLOUDY    72  59  63 SW3       29.92F
RALEIGH NC     LGT RAIN  65  62  90 CALM      29.98F FOG
ATLANTA GA     CLOUDY    68  64  87 E7        29.97F
NEW ORLEANS LA PTCLDY    77  71  82 CALM      29.88F
OKLAHOMA CITY  PTCLDY    68  56  65 SE7       29.94S
ALBUQUERQUE NM PTCLDY    65  33  30 N14       30.04R
SALT LAKE CITY MOCLDY    53  48  83 S7        30.00R
LOS ANGELES CA CLEAR     68  62  81 SW8       29.87R
BOISE ID       PTCLDY    54  52  93 SW3       29.95R
SEATTLE WA     CLOUDY    59  53  80 SW7       29.94R
$$

*** WEATHER ACROSS MANITOBA...SASKATCHEWAN AND ONTARIO ***
                ***ONTARIO***

CITY           SKY/WX    TMP DP  RH WIND       PRES   REMARKS
GERALDTON      CLEAR     30  28  93 CALM      30.20F
THUNDER BAY    CLOUDY    41  36  81 CALM      30.23F
SIOUX LOOKOUT  CLOUDY    39  36  87 S7        30.20S
TORONTO        MOCLDY    64  59  82 NW3       29.86F
BIG TROUT LK   CLEAR     43  32  65 SW14G21   30.09F
PICKLE LAKE    NOT AVBL
DRYDEN         CLOUDY    39  37  93 SE5       30.18F
KENORA         CLOUDY    43  39  87 SE7       30.16S
$$
                *** MANITOBA***

CITY           SKY/WX    TMP DP  RH WIND       PRES   REMARKS
BRANDON        CLOUDY    43  41  93 E6        30.04F
DAUPHIN        PTCLDY    43  37  81 S6        30.02F
ISLAND LAKE    PTCLDY    45  39  81 S12       30.06F
PILOT MOUND      N/A     48  45  87 SE8         N/A
THE PAS        CLEAR     45  41  87 S8        29.92F
THOMPSON       PTCLDY    43  41  93 S7        29.94F
WINNIPEG       CLOUDY    50  45  81 SE10      30.10F
LYNN LAKE      CLOUDY    43  37  81 S7        29.83F
CHURCHILL      CLOUDY    41  41 100 E6        29.93R FOG
GILLAM         CLEAR     41  39  93 SW9       29.96S
$$
                ***SASKATCHEWAN***

CITY           SKY/WX    TMP DP  RH WIND       PRES   REMARKS
ESTEVAN        CLOUDY    48  45  87 SE14      29.90F
KINDERSLEY     CLOUDY    50  45  81 S16G23    29.68F
LLOYDMINSTER   CLEAR     52  45  76 S14G22    29.63F
PRINCE ALBERT  CLOUDY    52  41  66 S10       29.79F
REGINA         CLOUDY    48  43  81 SE22      29.86F
YORKTON        CLEAR     43  39  87 SE14G20   29.93F FOG
N. BATTLEFORD  CLOUDY    50  45  81 E10       29.72F
LA RONGE       CLEAR     50  41  71 SE9       29.77F
SASKATOON      CLOUDY    52  45  76 S17G24    29.79F
SWIFT CURRENT  CLOUDY    46  45  93 SE24G30   29.69F
$$
NOTE: THESE ARE AUTOMATED STATIONS WITH LIMITED QUALITY CONTROL
      "FAIR" INDICATES FEW OR NO CLOUDS BELOW 12,000 FEET WITH NO
      SIGNIFICANT WEATHER AND/OR OBSTRUCTIONS TO VISIBILITY.
      SKY/WX - SKY CONDITION AND SIGNIFICANT WEATHER.
      TMP - AIR TEMPERATURE.    DP   - DEWPOINT TEMPERATURE.
      RH  - RELATIVE HUMIDITY.  PRES - PRESSURE.
      HX  - HEAT INDEX.         WCI  - WIND CHILL INDEX.
$


USA.gov is the U.S. government's official web portal to all federal, state and local government web resources and services.